QPF
0.00 0.00 0.00 0.00 0.00 0.00 0.00 0.00 0.00 0.00 0.00 0.00 0.00 0.00 0.00 0.00 0.00 0.00 0.00 0.00 0.00 0.00 0.00 0.00 0.00 0.00 0.00 0.00 0.00 0.00 0.00 0.00
0.00 0.00 0.00 0.00 0.00 0.00 0.00 0.00 0.00 0.00 0.00 0.00 0.00 0.00 0.00 0.00 0.00 0.00 0.00 0.00 0.00 0.00 0.00 0.00 0.00 0.00 0.00 0.00 0.00 0.00 0.00 0.00
0.00 0.00 0.00 0.00 0.00 0.00 0.00 0.00 0.00 0.00 0.00 0.00 0.00 0.00 0.00 0.00 0.00 0.00 0.00 0.00 0.00 0.00 0.00 0.00 0.00 0.00 0.00 0.00 0.00 0.00 0.00 0.00
0.00 0.00 0.00 0.00 0.00 0.00 0.00 0.00 0.00 0.00 0.00 0.00 0.00 0.00 0.00 0.00 0.00 0.00 0.00 0.00 0.00 0.00 0.00 0.00 0.00 0.00 0.00 0.00 0.00 0.00 0.00 0.00
0.00 0.00 0.00 0.00 0.00 0.00 0.00 0.00 0.00 0.00 0.00 0.00 0.00 0.00 0.00 0.00 0.00 0.00 0.00 0.00 0.00 0.00 0.00 0.00 0.00 0.00 0.00 0.00 0.00 0.00 0.00 0.00
0.06 0.04 0.01 0.00 0.00 0.00 0.00 0.00 0.00 0.00 0.00 0.00 0.00 0.00 0.00 0.00 0.00 0.00 0.00 0.00 0.00 0.00 0.00 0.00 0.00 0.00 0.00 0.00 0.00 0.00 0.00 0.00
0.02 0.04 0.06 0.02 0.00 0.00 0.00 0.00 0.00 0.00 0.00 0.00 0.00 0.00 0.00 0.00 0.00 0.00 0.00 0.00 0.00 0.00 0.00 0.00 0.00 0.00 0.00 0.00 0.00 0.00 0.00 0.00
0.02 0.03 0.04 0.08 0.04 0.01 0.00 0.00 0.00 0.00 0.00 0.00 0.00 0.00 0.00 0.00 0.00 0.00 0.00 0.00 0.00 0.00 0.00 0.00 0.00 0.00 0.00 0.00 0.00 0.00 0.00 0.00
0.00 0.05 0.08 0.05 0.09 0.02 0.01 0.04 0.01 0.00 0.00 0.00 0.00 0.00 0.00 0.00 0.00 0.00 0.00 0.00 0.00 0.00 0.00 0.00 0.00 0.00 0.00 0.00 0.00 0.00 0.00 0.00
0.00 0.00 0.01 0.06 0.13 0.09 0.04 0.02 0.06 0.02 0.00 0.00 0.00 0.00 0.00 0.00 0.00 0.00 0.00 0.00 0.00 0.00 0.00 0.00 0.00 0.00 0.00 0.00 0.00 0.00 0.00 0.00
0.00 0.00 0.00 0.00 0.02 0.05 0.09 0.06 0.03 0.07 0.02 0.00 0.00 0.00 0.00 0.00 0.00 0.00 0.00 0.00 0.00 0.00 0.00 0.00 0.00 0.00 0.00 0.00 0.00 0.00 0.00 0.00
0.00 0.00 0.00 0.00 0.00 0.01 0.03 0.08 0.07 0.10 0.07 0.00 0.00 0.00 0.00 0.00 0.00 0.00 0.00 0.00 0.00 0.00 0.00 0.00 0.00 0.00 0.00 0.00 0.00 0.00 0.00 0.00
0.00 0.00 0.00 0.00 0.00 0.00 0.01 0.02 0.04 0.06 0.04 0.02 0.01 0.00 0.00 0.00 0.00 0.00 0.00 0.00 0.00 0.00 0.00 0.00 0.00 0.00 0.00 0.00 0.00 0.00 0.00 0.00
0.00 0.00 0.00 0.00 0.00 0.00 0.00 0.01 0.02 0.06 0.10 0.06 0.02 0.01 0.01 0.00 0.00 0.00 0.00 0.00 0.00 0.00 0.00 0.00 0.00 0.00 0.00 0.00 0.00 0.00 0.00 0.00
0.00 0.00 0.00 0.00 0.00 0.00 0.00 0.00 0.01 0.04 0.09 0.08 0.07 0.05 0.02 0.00 0.00 0.01 0.00 0.00 0.00 0.00 0.00 0.00 0.00 0.00 0.00 0.00 0.00 0.00 0.00 0.00
0.00 0.00 0.00 0.00 0.00 0.00 0.00 0.00 0.00 0.01 0.02 0.03 0.12 0.07 0.02 0.02 0.01 0.01 0.02 0.01 0.00 0.00 0.00 0.00 0.00 0.00 0.00 0.00 0.00 0.00 0.00 0.00
0.00 0.00 0.00 0.00 0.00 0.00 0.00 0.00 0.00 0.01 0.03 0.02 0.03 0.08 0.06 0.03 0.04 0.04 0.04 0.03 0.01 0.01 0.00 0.00 0.00 0.00 0.00 0.00 0.00 0.00 0.00 0.00
0.00 0.00 0.00 0.00 0.00 0.00 0.00 0.00 0.00 0.00 0.00 0.01 0.02 0.06 0.09 0.07 0.09 0.07 0.03 0.02 0.01 0.01 0.00 0.00 0.00 0.00 0.00 0.00 0.00 0.00 0.00 0.00
0.00 0.00 0.00 0.00 0.00 0.00 0.00 0.00 0.00 0.00 0.00 0.00 0.00 0.04 0.10 0.10 0.08 0.05 0.03 0.03 0.03 0.02 0.01 0.00 0.00 0.00 0.00 0.00 0.00 0.00 0.00 0.00
0.00 0.00 0.00 0.00 0.00 0.00 0.00 0.00 0.00 0.00 0.00 0.00 0.00 0.00 0.03 0.11 0.10 0.06 0.04 0.04 0.04 0.04 0.03 0.01 0.00 0.00 0.00 0.00 0.00 0.00 0.00 0.00
MSLP
1019.47 1019.83 1020.53 1020.97 1021.23 1021.40 1021.36 1021.49 1021.76 1021.95 1022.08 1022.32 1022.43 1022.47 1022.53 1022.52 1022.63 1022.73 1022.77 1022.86 1023.01 1023.13 1023.24 1023.38 1023.46 1023.67 1023.95 1024.03 1023.91 1023.56 1022.95 1023.44
1019.47 1019.81 1020.36 1020.86 1021.40 1021.89 1021.95 1022.02 1022.17 1022.32 1022.48 1022.64 1022.82 1022.90 1022.95 1022.99 1022.97 1023.08 1023.19 1023.26 1023.24 1023.41 1023.58 1023.70 1023.83 1024.10 1024.29 1024.32 1024.15 1023.71 1023.00 1023.23
1019.85 1019.92 1020.22 1020.59 1020.94 1021.79 1022.31 1022.50 1022.60 1022.71 1022.77 1022.94 1023.06 1022.47 1022.89 1023.09 1022.87 1023.33 1023.44 1023.55 1023.66 1023.75 1023.89 1024.09 1024.30 1024.55 1024.70 1024.61 1024.16 1022.90 1023.10 1023.05
1019.94 1020.24 1020.41 1020.71 1020.62 1021.32 1021.56 1021.93 1022.10 1022.15 1022.28 1022.64 1022.10 1022.32 1022.43 1022.46 1023.09 1023.67 1023.72 1023.79 1023.89 1024.04 1024.19 1024.34 1024.25 1023.74 1024.32 1024.73 1023.13 1023.33 1023.25 1023.32
1020.64 1020.70 1020.62 1020.66 1020.48 1020.90 1020.92 1021.18 1021.44 1021.84 1022.08 1022.30 1022.00 1022.33 1022.66 1022.70 1022.92 1023.40 1023.37 1023.82 1023.40 1023.89 1024.13 1023.48 1022.95 1022.98 1023.43 1023.41 1023.49 1023.64 1023.32 1023.40
1021.44 1020.69 1020.69 1021.32 1020.32 1020.72 1020.58 1020.66 1021.05 1021.29 1021.78 1022.17 1022.12 1022.24 1022.37 1022.34 1022.37 1022.65 1022.97 1023.06 1022.69 1022.88 1022.88 1022.78 1023.18 1023.20 1023.33 1023.58 1023.65 1023.33 1023.42 1023.56
1022.56 1022.09 1021.90 1020.81 1020.80 1020.33 1020.40 1020.46 1020.77 1020.91 1021.31 1021.90 1021.83 1021.88 1022.12 1022.20 1022.30 1022.44 1022.57 1022.63 1022.74 1022.73 1022.51 1022.92 1023.02 1023.12 1023.26 1023.38 1023.58 1023.59 1023.73 1023.54
1022.98 1022.54 1022.50 1021.70 1020.61 1020.70 1020.50 1020.48 1020.31 1020.79 1020.98 1021.24 1021.90 1021.73 1021.87 1022.06 1022.18 1022.46 1022.43 1022.52 1022.65 1022.72 1022.64 1022.67 1022.73 1022.67 1023.02 1023.15 1023.25 1023.39 1023.68 1023.79
1023.42 1022.73 1022.44 1022.34 1020.60 1020.12 1020.55 1020.67 1020.41 1020.49 1020.49 1020.97 1021.39 1021.67 1021.68 1021.89 1021.91 1022.06 1022.14 1022.40 1022.70 1022.94 1023.01 1022.97 1022.62 1022.80 1022.69 1022.96 1023.01 1023.21 1023.27 1023.65
1023.75 1023.13 1022.57 1022.39 1022.19 1021.16 1020.28 1020.13 1020.48 1020.10 1020.42 1020.54 1021.03 1021.25 1021.43 1021.72 1021.50 1021.59 1021.77 1022.05 1022.45 1022.58 1022.64 1022.71 1022.79 1022.70 1022.62 1022.56 1022.64 1022.68 1023.04 1023.34
1024.23 1023.50 1022.94 1022.50 1022.29 1021.67 1020.55 1020.19 1020.11 1020.10 1020.06 1020.37 1020.77 1020.97 1021.03 1021.22 1020.99 1021.06 1021.53 1021.56 1021.78 1021.98 1022.21 1022.30 1022.28 1022.46 1022.41 1022.42 1022.33 1022.28 1022.50 1022.68
1024.75 1024.15 1023.66 1022.87 1022.70 1022.19 1021.08 1020.17 1020.03 1019.87 1019.84 1019.93 1020.48 1020.75 1020.74 1020.82 1020.60 1020.64 1020.95 1020.95 1021.11 1021.46 1021.72 1021.90 1022.02 1021.96 1021.91 1021.89 1022.08 1022.09 1022.07 1022.22
1025.13 1024.51 1024.01 1023.28 1022.48 1022.44 1021.76 1021.38 1020.95 1020.02 1019.59 1019.65 1020.02 1020.32 1020.35 1020.43 1020.27 1020.12 1020.46 1020.34 1020.41 1020.88 1021.41 1021.72 1021.78 1021.95 1021.90 1021.63 1021.54 1021.90 1022.03 1021.87
1025.64 1025.03 1024.54 1024.02 1023.42 1022.66 1022.76 1022.16 1021.23 1020.45 1019.49 1019.47 1019.47 1019.64 1019.85 1019.80 1019.86 1019.52 1019.62 1019.89 1020.09 1020.36 1020.81 1021.03 1021.23 1021.51 1021.48 1021.14 1020.75 1020.88 1021.19 1021.44
1026.16 1025.68 1025.02 1024.51 1024.15 1023.00 1022.20 1021.68 1021.03 1020.38 1019.83 1019.47 1018.80 1018.91 1018.97 1019.21 1019.05 1019.26 1019.09 1019.39 1019.39 1019.90 1020.21 1020.38 1020.35 1020.77 1021.17 1020.52 1019.94 1019.49 1019.35 1019.44
1026.67 1026.13 1025.53 1024.96 1024.54 1023.67 1023.13 1022.17 1021.64 1021.31 1021.18 1020.51 1019.66 1018.28 1018.46 1018.65 1018.68 1018.39 1018.76 1018.88 1019.14 1019.07 1019.51 1019.78 1020.19 1019.71 1020.20 1020.48 1019.77 1019.27 1018.92 1018.73
1026.93 1026.46 1025.83 1025.41 1024.97 1024.47 1023.78 1022.96 1022.53 1022.21 1021.36 1020.76 1020.17 1019.46 1017.32 1016.46 1017.89 1017.59 1018.41 1018.59 1018.66 1018.97 1018.97 1019.26 1019.27 1019.50 1019.09 1019.48 1019.61 1019.52 1019.55 1019.23
1026.97 1026.58 1026.06 1025.70 1025.25 1024.85 1024.37 1023.84 1022.96 1022.27 1021.77 1021.09 1020.40 1019.63 1018.92 1017.52 1016.51 1016.50 1017.60 1017.99 1018.16 1018.27 1018.61 1018.77 1019.05 1018.88 1018.89 1018.57 1018.63 1018.70 1018.57 1018.62
1026.88 1026.64 1026.19 1025.91 1025.47 1025.06 1024.55 1024.11 1023.29 1022.48 1022.14 1021.75 1020.97 1020.16 1019.19 1018.85 1017.41 1017.02 1016.60 1017.07 1017.22 1017.33 1017.80 1018.16 1018.33 1018.48 1018.35 1018.11 1017.90 1017.77 1017.92 1017.79
1027.01 1026.77 1026.26 1026.00 1025.66 1025.19 1024.68 1024.27 1023.63 1022.93 1022.39 1022.04 1021.37 1020.74 1020.06 1019.05 1018.45 1017.10 1016.61 1016.50 1016.52 1016.79 1017.18 1017.60 1017.70 1017.74 1017.84 1017.70 1017.41 1017.10 1017.32 1017.16
Thickness
5729 5726 5722 5719 5717 5716 5716 5715 5712 5709 5707 5705 5705 5705 5704 5704 5703 5703 5703 5705 5705 5705 5705 5705 5704 5702 5700 5698 5698 5699 5701 5696
5728 5725 5721 5717 5713 5711 5710 5710 5709 5707 5705 5703 5702 5702 5702 5701 5701 5701 5702 5702 5703 5703 5703 5703 5702 5700 5698 5697 5696 5698 5700 5698
5723 5722 5720 5718 5715 5709 5706 5705 5704 5704 5703 5701 5700 5702 5701 5701 5702 5700 5701 5701 5701 5701 5700 5700 5698 5696 5695 5695 5697 5702 5700 5699
5718 5716 5715 5714 5715 5711 5708 5705 5703 5704 5703 5701 5704 5703 5702 5704 5701 5699 5699 5699 5699 5699 5698 5697 5697 5698 5694 5693 5701 5699 5699 5698
5708 5708 5710 5711 5712 5711 5711 5710 5707 5703 5702 5701 5704 5702 5700 5700 5700 5697 5698 5697 5699 5696 5695 5699 5703 5702 5698 5698 5698 5697 5698 5697
5697 5703 5705 5703 5710 5708 5710 5710 5708 5707 5702 5700 5701 5701 5701 5701 5701 5700 5699 5699 5702 5701 5701 5702 5699 5699 5698 5696 5696 5698 5697 5695
5685 5690 5692 5700 5703 5708 5708 5708 5706 5706 5704 5699 5701 5701 5700 5700 5699 5699 5699 5699 5699 5700 5702 5699 5699 5698 5697 5696 5694 5695 5694 5694
5675 5681 5682 5689 5697 5699 5703 5704 5705 5703 5703 5701 5697 5699 5699 5698 5698 5696 5696 5697 5696 5697 5698 5698 5699 5700 5697 5696 5696 5694 5692 5691
5663 5671 5675 5680 5692 5696 5697 5697 5700 5701 5702 5700 5698 5696 5697 5695 5696 5696 5695 5694 5693 5692 5693 5694 5697 5696 5698 5696 5695 5694 5693 5691
5651 5657 5665 5671 5676 5685 5692 5695 5695 5699 5697 5698 5697 5695 5695 5693 5695 5695 5695 5694 5691 5691 5691 5692 5693 5695 5696 5696 5696 5695 5693 5690
5635 5644 5652 5659 5665 5674 5683 5687 5691 5692 5694 5694 5693 5693 5694 5693 5696 5695 5693 5694 5693 5692 5690 5690 5692 5692 5694 5694 5695 5695 5694 5692
5620 5627 5634 5643 5648 5658 5670 5679 5684 5686 5688 5690 5688 5688 5691 5691 5694 5695 5693 5694 5694 5692 5690 5689 5689 5691 5693 5695 5694 5693 5694 5693
5604 5611 5617 5627 5638 5641 5651 5658 5666 5677 5682 5683 5684 5684 5686 5687 5690 5692 5691 5694 5694 5692 5688 5687 5686 5687 5685 5688 5692 5691 5690 5692
5582 5591 5598 5606 5614 5625 5628 5640 5653 5661 5671 5674 5677 5679 5681 5683 5686 5690 5691 5691 5691 5690 5688 5686 5685 5685 5681 5684 5682 5689 5691 5691
5560 5567 5577 5585 5593 5604 5617 5628 5641 5650 5656 5661 5671 5673 5675 5677 5683 5682 5685 5686 5689 5687 5685 5685 5684 5684 5682 5685 5682 5684 5695 5701
5538 5544 5551 5561 5570 5583 5592 5606 5618 5628 5634 5642 5654 5668 5667 5667 5672 5677 5676 5678 5680 5685 5682 5683 5679 5685 5684 5685 5692 5695 5689 5687
5518 5522 5530 5536 5544 5556 5568 5582 5593 5602 5618 5628 5637 5644 5657 5663 5663 5668 5664 5666 5671 5671 5675 5676 5680 5678 5686 5683 5683 5686 5687 5684
5502 5502 5508 5515 5523 5531 5542 5553 5569 5583 5594 5610 5621 5629 5636 5654 5658 5665 5655 5655 5662 5666 5667 5670 5670 5674 5677 5682 5684 5682 5685 5684
5486 5488 5492 5495 5502 5510 5521 5531 5546 5560 5572 5583 5599 5610 5620 5625 5627 5639 5650 5649 5655 5659 5660 5661 5666 5666 5673 5677 5683 5686 5687 5688
5476 5476 5480 5483 5487 5492 5501 5511 5524 5537 5549 5560 5574 5588 5596 5604 5615 5620 5633 5639 5643 5648 5652 5653 5657 5660 5663 5669 5676 5684 5684 5687